CSN9841 ZUTF-ZULS

Flight info

Callsign CSN9841
Flight time N/A
Altitude 36100
Route MUMGO B213 LXA
Aircraft A20N/M-SADE1E2E3GHIJ1J3J5M1P2RWXY/LB2D1

Departure

Time N/A
Airport Chengdu Tianfu International Airport (ZUTF)

Arrival

Time 2026-05-05 10:43
Airport Lhasa Gonggar International Airport (ZULS)
Time Latitude Longitude Altitude Speed Heading
2026-05-05 10:14 29.25922 91.23529 34970 ft 446 kts 61°
2026-05-05 10:14 29.27130 91.27996 34590 ft 443 kts 85°
2026-05-05 10:15 29.27182 91.30353 34395 ft 439 kts 97°
2026-05-05 10:15 29.26550 91.33735 34108 ft 431 kts 115°
2026-05-05 10:15 29.24573 91.37569 33748 ft 417 kts 130°
2026-05-05 10:15 29.22789 91.40179 33466 ft 416 kts 135°
2026-05-05 10:16 29.21426 91.41780 33249 ft 408 kts 144°
2026-05-05 10:16 29.19077 91.43448 32941 ft 392 kts 165°
2026-05-05 10:16 29.16499 91.44044 32658 ft 375 kts 186°
2026-05-05 10:16 29.13201 91.43175 32259 ft 353 kts 213°
2026-05-05 10:17 29.11851 91.42164 32071 ft 341 kts 225°
2026-05-05 10:17 29.09969 91.39420 31687 ft 323 kts 249°
2026-05-05 10:17 29.09469 91.37848 31494 ft 317 kts 259°
2026-05-05 10:17 29.09267 91.35338 31214 ft 316 kts 276°
2026-05-05 10:18 29.09750 91.32058 30862 ft 317 kts 281°
2026-05-05 10:18 29.10028 91.30423 30681 ft 318 kts 281°
2026-05-05 10:18 29.10450 91.27942 30408 ft 319 kts 281°
2026-05-05 10:18 29.11006 91.24638 30029 ft 313 kts 281°
2026-05-05 10:19 29.11421 91.22224 29751 ft 307 kts 285°
2026-05-05 10:19 29.11879 91.20725 29544 ft 303 kts 297°
2026-05-05 10:19 29.13068 91.18745 29259 ft 298 kts 313°
2026-05-05 10:19 29.15268 91.16919 28891 ft 294 kts 334°
2026-05-05 10:20 29.16548 91.16396 28705 ft 293 kts 344°
2026-05-05 10:20 29.18598 91.16148 28439 ft 300 kts
2026-05-05 10:20 29.21288 91.16876 28059 ft 301 kts 22°
2026-05-05 10:20 29.23054 91.18188 27776 ft 305 kts 40°
2026-05-05 10:21 29.24419 91.20052 27503 ft 308 kts 58°
2026-05-05 10:21 29.25038 91.21527 27321 ft 310 kts 70°
2026-05-05 10:21 29.25454 91.23927 27049 ft 311 kts 89°
2026-05-05 10:21 29.25116 91.27208 26702 ft 311 kts 102°
2026-05-05 10:22 29.24823 91.28785 26513 ft 309 kts 102°
2026-05-05 10:22 29.24365 91.31210 26112 ft 309 kts 102°
2026-05-05 10:22 29.23937 91.33582 25710 ft 308 kts 102°
2026-05-05 10:22 29.23385 91.36787 25219 ft 305 kts 101°
2026-05-05 10:23 29.22856 91.39106 24842 ft 302 kts 116°
2026-05-05 10:23 29.22188 91.40510 24615 ft 298 kts 128°
2026-05-05 10:23 29.20801 91.42203 24290 ft 290 kts 146°
2026-05-05 10:23 29.18451 91.43604 23819 ft 281 kts 168°
2026-05-05 10:24 29.16562 91.43948 23462 ft 275 kts 183°
2026-05-05 10:24 29.14685 91.43709 23105 ft 270 kts 198°
2026-05-05 10:24 29.12940 91.42922 22748 ft 266 kts 213°
2026-05-05 10:24 29.11938 91.42152 22523 ft 263 kts 222°
2026-05-05 10:25 29.10669 91.40640 22182 ft 260 kts 236°
2026-05-05 10:25 29.09797 91.38868 21858 ft 258 kts 249°
2026-05-05 10:25 29.09337 91.36904 21527 ft 258 kts 263°
2026-05-05 10:25 29.09316 91.34869 21199 ft 258 kts 276°
2026-05-05 10:26 29.09727 91.32176 20772 ft 258 kts 279°
2026-05-05 10:26 29.09959 91.30829 20551 ft 258 kts 279°
2026-05-05 10:26 29.10422 91.28121 19881 ft 271 kts 278°
2026-05-05 10:26 29.10665 91.26684 19495 ft 280 kts 278°
2026-05-05 10:27 29.11038 91.24456 18871 ft 293 kts 278°
2026-05-05 10:27 29.11437 91.22134 18394 ft 311 kts 282°
2026-05-05 10:27 29.12742 91.19122 18099 ft 322 kts 308°
2026-05-05 10:27 29.14414 91.17400 18088 ft 327 kts 326°
2026-05-05 10:28 29.16494 91.16340 18078 ft 331 kts 344°
2026-05-05 10:28 29.17996 91.16071 18075 ft 332 kts 357°
2026-05-05 10:28 29.20320 91.16380 18071 ft 335 kts 16°
2026-05-05 10:28 29.22409 91.17507 18067 ft 334 kts 36°
2026-05-05 10:29 29.24486 91.20058 18058 ft 320 kts 62°
2026-05-05 10:29 29.25286 91.22332 18061 ft 301 kts 80°
2026-05-05 10:29 29.25466 91.24644 18072 ft 289 kts 96°
2026-05-05 10:29 29.25176 91.26914 18057 ft 289 kts 103°
2026-05-05 10:30 29.24774 91.29160 18041 ft 286 kts 104°
2026-05-05 10:30 29.24377 91.31316 18030 ft 271 kts 104°
2026-05-05 10:30 29.24007 91.33368 18117 ft 256 kts 104°
2026-05-05 10:30 29.23663 91.35308 18083 ft 238 kts 104°
2026-05-05 10:31 29.23352 91.37074 18043 ft 219 kts 104°
2026-05-05 10:31 29.23167 91.38741 18022 ft 207 kts 94°
2026-05-05 10:31 29.23200 91.39835 18035 ft 208 kts 85°
2026-05-05 10:31 29.23663 91.41943 18046 ft 197 kts 69°
2026-05-05 10:32 29.24296 91.43305 18033 ft 194 kts 57°
2026-05-05 10:32 29.24835 91.44113 18030 ft 193 kts 49°
2026-05-05 10:32 29.25812 91.45167 18052 ft 193 kts 36°
2026-05-05 10:32 29.26953 91.45981 18078 ft 192 kts 24°
2026-05-05 10:33 29.28615 91.46634 18102 ft 191 kts
2026-05-05 10:33 29.29491 91.46771 18111 ft 189 kts
2026-05-05 10:33 29.31224 91.46583 18106 ft 184 kts 329°
2026-05-05 10:33 29.31882 91.46011 18110 ft 176 kts 301°
2026-05-05 10:34 29.32238 91.44724 18140 ft 173 kts 261°
2026-05-05 10:34 29.31576 91.43018 18167 ft 183 kts 241°
2026-05-05 10:34 29.31088 91.41664 18135 ft 185 kts 251°
2026-05-05 10:34 29.30876 91.40710 18125 ft 186 kts 256°
2026-05-05 10:35 29.30676 91.39246 18122 ft 185 kts 261°
2026-05-05 10:35 29.30564 91.37787 18127 ft 185 kts 263°
2026-05-05 10:35 29.30499 91.36303 18128 ft 185 kts 265°
2026-05-05 10:35 29.30460 91.34837 18131 ft 184 kts 266°
2026-05-05 10:36 29.30433 91.33381 18124 ft 184 kts 266°
2026-05-05 10:36 29.30404 91.31422 18121 ft 184 kts 266°
2026-05-05 10:36 29.30389 91.30452 18115 ft 184 kts 266°
2026-05-05 10:36 29.30375 91.28983 18112 ft 184 kts 267°
2026-05-05 10:37 29.30369 91.27013 18111 ft 184 kts 267°
2026-05-05 10:37 29.30360 91.25548 18108 ft 184 kts 266°
2026-05-05 10:37 29.30350 91.24573 18100 ft 185 kts 266°
2026-05-05 10:37 29.30319 91.22578 17463 ft 196 kts 265°
2026-05-05 10:38 29.30279 91.21002 16857 ft 203 kts 265°
2026-05-05 10:38 29.30226 91.19371 16205 ft 214 kts 265°
2026-05-05 10:38 29.30187 91.17603 15190 ft 239 kts 268°
2026-05-05 10:38 29.30214 91.16326 14541 ft 245 kts 271°
2026-05-05 10:39 29.30333 91.13860 13913 ft 224 kts 265°
2026-05-05 10:39 29.30257 91.12138 13639 ft 201 kts 265°
2026-05-05 10:39 29.30220 91.11141 13737 ft 182 kts 263°
2026-05-05 10:39 29.30141 91.09273 13625 ft 174 kts 265°
2026-05-05 10:40 29.30127 91.08353 13511 ft 172 kts 265°
2026-05-05 10:40 29.30113 91.06533 13315 ft 171 kts 265°
2026-05-05 10:40 29.30085 91.05624 13236 ft 170 kts 263°
2026-05-05 10:40 29.29968 91.03831 13133 ft 171 kts 263°
2026-05-05 10:41 29.29933 91.02914 13071 ft 171 kts 265°
2026-05-05 10:41 29.29960 91.01112 12926 ft 171 kts 268°
2026-05-05 10:41 29.29992 91.00207 12809 ft 170 kts 269°
2026-05-05 10:41 29.29966 90.98423 12558 ft 168 kts 258°
2026-05-05 10:42 29.29927 90.95744 12275 ft 167 kts 263°
2026-05-05 10:42 29.29855 90.94419 12143 ft 168 kts 266°
2026-05-05 10:42 29.29840 90.93083 11954 ft 165 kts 264°
2026-05-05 10:43 29.29821 90.92249 11931 ft 146 kts 268°
2026-05-05 10:43 29.29807 90.91277 11932 ft 44 kts 270°
2026-05-05 10:43 29.29806 90.91122 11932 ft 16 kts 269°
2026-05-05 10:43 29.29804 90.90975 11933 ft 19 kts 269°
2026-05-05 10:44 29.29795 90.90668 11939 ft 35 kts 266°
2026-05-05 10:44 29.29782 90.90536 11940 ft 9 kts 260°
2026-05-05 10:44 29.29770 90.90479 11940 ft 12 kts 253°
2026-05-05 10:44 29.29656 90.90204 11940 ft 36 kts 248°
2026-05-05 10:45 29.29610 90.90032 11940 ft 31 kts 222°
2026-05-05 10:45 29.29529 90.89909 11941 ft 15 kts 262°
2026-05-05 10:45 29.29519 90.89791 11941 ft 15 kts 269°
2026-05-05 10:45 29.29517 90.89710 11940 ft 15 kts 270°
2026-05-05 10:46 29.29514 90.89518 11940 ft 4 kts 270°
2026-05-05 10:46 29.29507 90.89456 11940 ft 23 kts 243°
2026-05-05 10:46 29.29382 90.89430 11943 ft 0 kts 180°